Time,TemperatureF,DewpointF,PressureIn,WindDirection,WindDirectionDegrees,WindSpeedMPH,WindSpeedGustMPH,Humidity,HourlyPrecipIn,Conditions,Clouds,dailyrainin,SolarRadiationWatts/m^2,SoftwareType,DateUTC
2013-07-28 00:02:00,59.9,40.2,29.78,WNW,297,5.0,7.0,48,0.00,,,0.00,0,WeatherCatV1.20B785,2013-07-28 07:02:00,
2013-07-28 00:07:00,59.6,39.9,29.78,WNW,303,5.0,9.0,48,0.00,,,0.00,0,WeatherCatV1.20B785,2013-07-28 07:07:00,
2013-07-28 00:12:00,59.6,39.9,29.78,WNW,300,5.0,10.0,48,0.00,,,0.00,0,WeatherCatV1.20B785,2013-07-28 07:12:00,
2013-07-28 00:17:00,59.6,39.9,29.76,WNW,301,7.0,10.0,48,0.00,,,0.00,0,WeatherCatV1.20B785,2013-07-28 07:17:00,
2013-07-28 00:22:00,59.8,40.1,29.76,WNW,297,6.0,9.0,48,0.00,,,0.00,0,WeatherCatV1.20B785,2013-07-28 07:22:00,
2013-07-28 00:27:00,59.8,40.1,29.76,WNW,293,6.0,9.0,48,0.00,,,0.00,0,WeatherCatV1.20B785,2013-07-28 07:27:00,
2013-07-28 00:32:00,59.9,39.6,29.76,NW,307,9.0,10.0,47,0.00,,,0.00,0,WeatherCatV1.20B785,2013-07-28 07:32:00,
2013-07-28 00:37:00,59.9,39.6,29.76,NW,320,5.0,10.0,47,0.00,,,0.00,0,WeatherCatV1.20B785,2013-07-28 07:37:00,
2013-07-28 00:42:00,60.1,39.8,29.76,WNW,297,7.0,7.0,47,0.00,,,0.00,0,WeatherCatV1.20B785,2013-07-28 07:42:00,
2013-07-28 00:47:00,60.2,39.9,29.75,WNW,298,6.0,10.0,47,0.00,,,0.00,0,WeatherCatV1.20B785,2013-07-28 07:47:00,
2013-07-28 00:52:00,60.1,39.8,29.75,NW,321,6.0,7.0,47,0.00,,,0.00,0,WeatherCatV1.20B785,2013-07-28 07:52:00,
2013-07-28 00:57:00,60.1,39.8,29.75,WNW,303,8.0,9.0,47,0.00,,,0.00,0,WeatherCatV1.20B785,2013-07-28 07:57:00,
2013-07-28 01:02:00,60.1,39.2,29.75,WNW,293,7.0,11.0,46,0.00,,,0.00,0,WeatherCatV1.20B785,2013-07-28 08:02:00,
2013-07-28 01:07:00,60.2,39.3,29.75,WNW,300,4.0,7.0,46,0.00,,,0.00,0,WeatherCatV1.20B785,2013-07-28 08:07:00,
2013-07-28 01:12:00,60.4,39.5,29.75,NW,308,6.0,8.0,46,0.00,,,0.00,0,WeatherCatV1.20B785,2013-07-28 08:12:00,
2013-07-28 01:17:00,60.2,39.3,29.74,NW,311,6.0,7.0,46,0.00,,,0.00,0,WeatherCatV1.20B785,2013-07-28 08:17:00,
2013-07-28 01:22:00,60.2,39.3,29.74,NW,311,5.0,7.0,46,0.00,,,0.00,0,WeatherCatV1.20B785,2013-07-28 08:22:00,
2013-07-28 01:27:00,60.2,38.8,29.74,NW,310,4.0,7.0,45,0.00,,,0.00,0,WeatherCatV1.20B785,2013-07-28 08:27:00,
2013-07-28 01:32:00,60.4,39.0,29.73,WNW,293,5.0,7.0,45,0.00,,,0.00,0,WeatherCatV1.20B785,2013-07-28 08:32:00,
2013-07-28 01:37:00,60.4,39.0,29.73,WNW,301,2.0,9.0,45,0.00,,,0.00,0,WeatherCatV1.20B785,2013-07-28 08:37:00,
2013-07-28 01:42:00,60.4,39.0,29.73,NW,306,3.0,8.0,45,0.00,,,0.00,0,WeatherCatV1.20B785,2013-07-28 08:42:00,
2013-07-28 01:47:00,60.2,38.2,29.73,NW,305,6.0,9.0,44,0.00,,,0.00,0,WeatherCatV1.20B785,2013-07-28 08:47:00,
2013-07-28 01:52:00,60.2,38.2,29.73,NW,306,4.0,8.0,44,0.00,,,0.00,0,WeatherCatV1.20B785,2013-07-28 08:52:00,
2013-07-28 01:57:00,60.2,38.2,29.73,NW,307,5.0,7.0,44,0.00,,,0.00,0,WeatherCatV1.20B785,2013-07-28 08:57:00,
2013-07-28 02:02:00,60.4,38.4,29.72,WNW,293,5.0,9.0,44,0.00,,,0.00,0,WeatherCatV1.20B785,2013-07-28 09:02:00,
2013-07-28 02:07:00,60.4,38.4,29.72,WNW,293,6.0,7.0,44,0.00,,,0.00,0,WeatherCatV1.20B785,2013-07-28 09:07:00,
2013-07-28 02:12:00,60.2,38.2,29.72,WNW,293,5.0,6.0,44,0.00,,,0.00,0,WeatherCatV1.20B785,2013-07-28 09:12:00,
2013-07-28 02:17:00,60.2,38.2,29.70,WNW,297,4.0,8.0,44,0.00,,,0.00,0,WeatherCatV1.20B785,2013-07-28 09:17:00,
2013-07-28 02:22:00,60.1,38.1,29.70,NW,311,4.0,6.0,44,0.00,,,0.00,0,WeatherCatV1.20B785,2013-07-28 09:22:00,
2013-07-28 02:28:00,60.1,37.5,29.70,WNW,301,5.0,7.0,43,0.00,,,0.00,0,WeatherCatV1.20B785,2013-07-28 09:28:00,
2013-07-28 02:33:00,60.1,37.5,29.70,WNW,303,4.0,7.0,43,0.00,,,0.00,0,WeatherCatV1.20B785,2013-07-28 09:33:00,
2013-07-28 02:38:00,60.1,36.9,29.70,WNW,293,5.0,7.0,42,0.00,,,0.00,0,WeatherCatV1.20B785,2013-07-28 09:38:00,
2013-07-28 02:43:00,60.1,36.9,29.70,WNW,293,5.0,7.0,42,0.00,,,0.00,0,WeatherCatV1.20B785,2013-07-28 09:43:00,
2013-07-28 02:48:00,60.1,36.9,29.70,WNW,293,4.0,7.0,42,0.00,,,0.00,0,WeatherCatV1.20B785,2013-07-28 09:48:00,
2013-07-28 02:53:00,59.9,36.8,29.70,NW,304,4.0,5.0,42,0.00,,,0.00,0,WeatherCatV1.20B785,2013-07-28 09:53:00,
2013-07-28 02:58:00,59.9,36.1,29.70,NW,305,0.0,5.0,41,0.00,,,0.00,0,WeatherCatV1.20B785,2013-07-28 09:58:00,
2013-07-28 03:03:00,59.8,36.0,29.70,NW,306,0.0,6.0,41,0.00,,,0.00,0,WeatherCatV1.20B785,2013-07-28 10:03:00,
2013-07-28 03:08:00,59.8,36.0,29.70,NW,310,3.0,5.0,41,0.00,,,0.00,0,WeatherCatV1.20B785,2013-07-28 10:08:00,
2013-07-28 03:13:00,59.6,36.5,29.70,NW,310,0.0,1.0,42,0.00,,,0.00,0,WeatherCatV1.20B785,2013-07-28 10:13:00,
2013-07-28 03:18:00,59.3,36.2,29.71,NW,310,1.0,1.0,42,0.00,,,0.00,0,WeatherCatV1.20B785,2013-07-28 10:18:00,
2013-07-28 03:23:00,59.3,36.2,29.71,NW,310,3.0,4.0,42,0.00,,,0.00,0,WeatherCatV1.20B785,2013-07-28 10:23:00,
2013-07-28 03:28:00,59.3,35.6,29.71,WNW,293,2.0,5.0,41,0.00,,,0.00,0,WeatherCatV1.20B785,2013-07-28 10:28:00,
2013-07-28 03:33:00,59.3,35.6,29.73,WNW,293,3.0,4.0,41,0.00,,,0.00,0,WeatherCatV1.20B785,2013-07-28 10:33:00,
2013-07-28 03:39:00,59.3,35.6,29.73,WNW,293,0.0,1.0,41,0.00,,,0.00,0,WeatherCatV1.20B785,2013-07-28 10:39:00,
2013-07-28 03:44:00,59.3,35.6,29.72,WNW,293,0.0,1.0,41,0.00,,,0.00,0,WeatherCatV1.20B785,2013-07-28 10:44:00,
2013-07-28 03:49:00,59.0,35.3,29.72,WNW,293,1.0,1.0,41,0.00,,,0.00,0,WeatherCatV1.20B785,2013-07-28 10:49:00,
2013-07-28 03:54:00,59.0,35.3,29.72,WNW,293,1.0,4.0,41,0.00,,,0.00,0,WeatherCatV1.20B785,2013-07-28 10:54:00,
2013-07-28 03:59:00,59.0,35.3,29.72,WNW,293,3.0,3.0,41,0.00,,,0.00,0,WeatherCatV1.20B785,2013-07-28 10:59:00,
2013-07-28 04:04:00,59.0,34.7,29.72,WNW,293,3.0,4.0,40,0.00,,,0.00,0,WeatherCatV1.20B785,2013-07-28 11:04:00,
2013-07-28 04:09:00,59.0,34.7,29.72,WNW,303,1.0,3.0,40,0.00,,,0.00,0,WeatherCatV1.20B785,2013-07-28 11:09:00,
2013-07-28 04:14:00,59.2,34.9,29.72,WNW,293,4.0,6.0,40,0.00,,,0.00,0,WeatherCatV1.20B785,2013-07-28 11:14:00,
2013-07-28 04:19:00,59.2,34.9,29.72,WNW,293,2.0,5.0,40,0.00,,,0.00,0,WeatherCatV1.20B785,2013-07-28 11:19:00,
2013-07-28 04:24:00,59.0,34.7,29.72,WNW,297,1.0,3.0,40,0.00,,,0.00,0,WeatherCatV1.20B785,2013-07-28 11:24:00,
2013-07-28 04:29:00,58.9,35.2,29.72,WNW,288,1.0,3.0,41,0.00,,,0.00,0,WeatherCatV1.20B785,2013-07-28 11:29:00,
2013-07-28 04:34:00,58.7,35.7,29.72,WNW,288,2.0,4.0,42,0.00,,,0.00,0,WeatherCatV1.20B785,2013-07-28 11:34:00,
2013-07-28 04:39:00,58.4,35.4,29.72,WNW,293,3.0,4.0,42,0.00,,,0.00,0,WeatherCatV1.20B785,2013-07-28 11:39:00,
2013-07-28 04:44:00,58.3,35.9,29.71,WNW,293,0.0,4.0,43,0.00,,,0.00,0,WeatherCatV1.20B785,2013-07-28 11:44:00,
2013-07-28 04:49:00,58.1,35.7,29.71,WNW,293,3.0,4.0,43,0.00,,,0.00,0,WeatherCatV1.20B785,2013-07-28 11:49:00,
2013-07-28 04:54:00,58.1,35.7,29.71,WNW,293,2.0,3.0,43,0.00,,,0.00,0,WeatherCatV1.20B785,2013-07-28 11:54:00,
2013-07-28 04:59:00,58.1,35.7,29.72,WNW,293,0.0,4.0,43,0.00,,,0.00,0,WeatherCatV1.20B785,2013-07-28 11:59:00,
2013-07-28 05:04:00,58.0,35.6,29.72,WNW,293,3.0,4.0,43,0.00,,,0.00,0,WeatherCatV1.20B785,2013-07-28 12:04:00,
2013-07-28 05:09:00,58.0,35.6,29.72,WNW,293,0.0,4.0,43,0.00,,,0.00,0,WeatherCatV1.20B785,2013-07-28 12:09:00,
2013-07-28 05:14:00,57.8,35.5,29.73,WNW,293,2.0,4.0,43,0.00,,,0.00,0,WeatherCatV1.20B785,2013-07-28 12:14:00,
2013-07-28 05:19:00,57.8,36.0,29.73,WNW,293,0.0,4.0,44,0.00,,,0.00,0,WeatherCatV1.20B785,2013-07-28 12:19:00,
2013-07-28 05:24:00,57.6,35.8,29.73,WNW,293,3.0,4.0,44,0.00,,,0.00,0,WeatherCatV1.20B785,2013-07-28 12:24:00,
2013-07-28 05:29:00,57.6,35.8,29.73,WNW,293,0.0,2.0,44,0.00,,,0.00,0,WeatherCatV1.20B785,2013-07-28 12:29:00,
2013-07-28 05:34:00,57.6,35.8,29.73,WNW,293,0.0,1.0,44,0.00,,,0.00,0,WeatherCatV1.20B785,2013-07-28 12:34:00,
2013-07-28 05:39:00,57.6,35.8,29.73,WNW,293,0.0,0.0,44,0.00,,,0.00,0,WeatherCatV1.20B785,2013-07-28 12:39:00,
2013-07-28 05:44:00,57.5,35.8,29.73,WNW,293,2.0,3.0,44,0.00,,,0.00,0,WeatherCatV1.20B785,2013-07-28 12:44:00,
2013-07-28 05:49:00,57.5,34.6,29.73,WNW,293,0.0,2.0,42,0.00,,,0.00,0,WeatherCatV1.20B785,2013-07-28 12:49:00,
2013-07-28 05:54:00,57.5,34.0,29.73,WNW,293,0.0,3.0,41,0.00,,,0.00,0,WeatherCatV1.20B785,2013-07-28 12:54:00,
2013-07-28 05:59:00,57.6,33.5,29.73,WNW,293,0.0,1.0,40,0.00,,,0.00,5,WeatherCatV1.20B785,2013-07-28 12:59:00,
2013-07-28 06:04:00,57.8,33.6,29.73,WNW,293,0.0,0.0,40,0.00,,,0.00,7,WeatherCatV1.20B785,2013-07-28 13:04:00,
2013-07-28 06:09:00,57.8,34.9,29.73,WNW,293,0.0,3.0,42,0.00,,,0.00,9,WeatherCatV1.20B785,2013-07-28 13:09:00,
2013-07-28 06:14:00,57.8,33.6,29.74,WNW,293,0.0,3.0,40,0.00,,,0.00,11,WeatherCatV1.20B785,2013-07-28 13:14:00,
2013-07-28 06:19:00,57.8,33.6,29.74,WNW,293,0.0,2.0,40,0.00,,,0.00,14,WeatherCatV1.20B785,2013-07-28 13:19:00,
2013-07-28 06:24:00,57.8,33.6,29.74,WNW,293,0.0,0.0,40,0.00,,,0.00,19,WeatherCatV1.20B785,2013-07-28 13:24:00,
2013-07-28 06:29:00,57.8,33.0,29.74,WNW,293,0.0,2.0,39,0.00,,,0.00,26,WeatherCatV1.20B785,2013-07-28 13:29:00,
2013-07-28 06:34:00,58.0,33.2,29.74,WNW,293,0.0,1.0,39,0.00,,,0.00,35,WeatherCatV1.20B785,2013-07-28 13:34:00,
2013-07-28 06:39:00,58.1,32.6,29.74,WNW,293,0.0,0.0,38,0.00,,,0.00,46,WeatherCatV1.20B785,2013-07-28 13:39:00,
2013-07-28 06:44:00,58.3,32.8,29.74,WNW,293,0.0,0.0,38,0.00,,,0.00,58,WeatherCatV1.20B785,2013-07-28 13:44:00,
2013-07-28 06:49:00,58.6,33.1,29.74,WNW,293,0.0,0.0,38,0.00,,,0.00,70,WeatherCatV1.20B785,2013-07-28 13:49:00,
2013-07-28 06:54:00,58.9,33.3,29.74,WNW,293,0.0,1.0,38,0.00,,,0.00,84,WeatherCatV1.20B785,2013-07-28 13:54:00,
2013-07-28 06:59:00,59.2,33.6,29.75,WNW,293,0.0,1.0,38,0.00,,,0.00,98,WeatherCatV1.20B785,2013-07-28 13:59:00,
2013-07-28 07:04:00,59.5,33.9,29.75,WNW,293,0.0,1.0,38,0.00,,,0.00,111,WeatherCatV1.20B785,2013-07-28 14:04:00,
2013-07-28 07:09:00,59.6,34.0,29.75,WNW,293,1.0,3.0,38,0.00,,,0.00,125,WeatherCatV1.20B785,2013-07-28 14:09:00,
2013-07-28 07:14:00,59.8,34.1,29.76,WNW,293,1.0,3.0,38,0.00,,,0.00,139,WeatherCatV1.20B785,2013-07-28 14:14:00,
2013-07-28 07:19:00,59.8,35.4,29.76,WNW,293,0.0,1.0,40,0.00,,,0.00,155,WeatherCatV1.20B785,2013-07-28 14:19:00,
2013-07-28 07:24:00,59.8,35.4,29.76,WNW,293,0.0,0.0,40,0.00,,,0.00,171,WeatherCatV1.20B785,2013-07-28 14:24:00,
2013-07-28 07:29:00,59.8,35.4,29.77,WNW,293,0.0,0.0,40,0.00,,,0.00,185,WeatherCatV1.20B785,2013-07-28 14:29:00,
2013-07-28 07:34:00,59.8,36.0,29.77,WNW,293,0.0,0.0,41,0.00,,,0.00,200,WeatherCatV1.20B785,2013-07-28 14:34:00,
2013-07-28 07:39:00,59.8,35.4,29.77,WNW,293,0.0,0.0,40,0.00,,,0.00,214,WeatherCatV1.20B785,2013-07-28 14:39:00,
2013-07-28 07:44:00,59.9,36.8,29.76,WNW,293,0.0,0.0,42,0.00,,,0.00,230,WeatherCatV1.20B785,2013-07-28 14:44:00,
2013-07-28 07:49:00,60.2,35.8,29.76,WNW,293,0.0,0.0,40,0.00,,,0.00,248,WeatherCatV1.20B785,2013-07-28 14:49:00,
2013-07-28 07:54:00,60.4,35.3,29.76,WNW,293,0.0,0.0,39,0.00,,,0.00,264,WeatherCatV1.20B785,2013-07-28 14:54:00,
2013-07-28 07:59:00,60.7,34.9,29.76,WNW,293,0.0,0.0,38,0.00,,,0.00,281,WeatherCatV1.20B785,2013-07-28 14:59:00,
2013-07-28 08:04:00,61.2,31.9,29.76,WNW,293,0.0,0.0,33,0.00,,,0.00,299,WeatherCatV1.20B785,2013-07-28 15:04:00,
2013-07-28 08:09:00,61.5,34.3,29.76,WNW,293,1.0,2.0,36,0.00,,,0.00,311,WeatherCatV1.20B785,2013-07-28 15:09:00,
2013-07-28 08:14:00,61.8,35.2,29.78,WNW,293,0.0,3.0,37,0.00,,,0.00,327,WeatherCatV1.20B785,2013-07-28 15:14:00,
2013-07-28 08:19:00,62.0,35.4,29.78,WNW,293,0.0,1.0,37,0.00,,,0.00,345,WeatherCatV1.20B785,2013-07-28 15:19:00,
2013-07-28 08:24:00,62.0,34.0,29.78,WNW,293,5.0,5.0,35,0.00,,,0.00,360,WeatherCatV1.20B785,2013-07-28 15:24:00,
2013-07-28 08:29:00,62.1,36.2,29.78,WNW,293,0.0,2.0,38,0.00,,,0.00,378,WeatherCatV1.20B785,2013-07-28 15:29:00,
2013-07-28 08:34:00,62.3,35.7,29.78,WNW,293,3.0,4.0,37,0.00,,,0.00,394,WeatherCatV1.20B785,2013-07-28 15:34:00,
2013-07-28 08:39:00,62.4,34.4,29.78,WNW,293,2.0,6.0,35,0.00,,,0.00,411,WeatherCatV1.20B785,2013-07-28 15:39:00,
2013-07-28 08:44:00,62.4,36.5,29.78,NW,312,6.0,8.0,38,0.00,,,0.00,424,WeatherCatV1.20B785,2013-07-28 15:44:00,
2013-07-28 08:49:00,62.4,35.8,29.78,WNW,293,4.0,6.0,37,0.00,,,0.00,439,WeatherCatV1.20B785,2013-07-28 15:49:00,
2013-07-28 08:54:00,62.4,34.4,29.78,WNW,299,5.0,6.0,35,0.00,,,0.00,457,WeatherCatV1.20B785,2013-07-28 15:54:00,
2013-07-28 08:59:00,62.4,34.4,29.78,WNW,303,5.0,6.0,35,0.00,,,0.00,473,WeatherCatV1.20B785,2013-07-28 15:59:00,
2013-07-28 09:04:00,62.4,35.1,29.78,WNW,303,3.0,4.0,36,0.00,,,0.00,480,WeatherCatV1.20B785,2013-07-28 16:04:00,
2013-07-28 09:09:00,62.7,36.0,29.78,WNW,301,2.0,3.0,37,0.00,,,0.00,497,WeatherCatV1.20B785,2013-07-28 16:09:00,
2013-07-28 09:14:00,62.9,35.5,29.78,NW,305,4.0,7.0,36,0.00,,,0.00,513,WeatherCatV1.20B785,2013-07-28 16:14:00,
2013-07-28 09:19:00,63.2,35.8,29.78,WNW,299,5.0,6.0,36,0.00,,,0.00,527,WeatherCatV1.20B785,2013-07-28 16:19:00,
2013-07-28 09:24:00,63.4,36.7,29.78,WNW,293,5.0,8.0,37,0.00,,,0.00,543,WeatherCatV1.20B785,2013-07-28 16:24:00,
2013-07-28 09:30:00,63.5,36.8,29.78,NW,320,6.0,6.0,37,0.00,,,0.00,557,WeatherCatV1.20B785,2013-07-28 16:30:00,
2013-07-28 09:35:00,63.7,37.6,29.78,WNW,283,6.0,6.0,38,0.00,,,0.00,577,WeatherCatV1.20B785,2013-07-28 16:35:00,
2013-07-28 09:40:00,64.0,37.2,29.78,WNW,288,4.0,6.0,37,0.00,,,0.00,589,WeatherCatV1.20B785,2013-07-28 16:40:00,
2013-07-28 09:45:00,64.2,35.2,29.78,West,274,1.0,8.0,34,0.00,,,0.00,603,WeatherCatV1.20B785,2013-07-28 16:45:00,
2013-07-28 09:50:00,64.5,37.0,29.78,WNW,302,0.0,3.0,36,0.00,,,0.00,612,WeatherCatV1.20B785,2013-07-28 16:50:00,
2013-07-28 09:55:00,64.7,37.1,29.78,NW,314,7.0,7.0,36,0.00,,,0.00,628,WeatherCatV1.20B785,2013-07-28 16:55:00,
2013-07-28 10:00:00,65.0,37.4,29.76,West,261,5.0,10.0,36,0.00,,,0.00,638,WeatherCatV1.20B785,2013-07-28 17:00:00,
2013-07-28 10:05:00,65.2,37.6,29.76,WNW,288,5.0,7.0,36,0.00,,,0.00,650,WeatherCatV1.20B785,2013-07-28 17:05:00,
2013-07-28 10:10:00,65.5,37.8,29.76,WNW,301,5.0,7.0,36,0.00,,,0.00,666,WeatherCatV1.20B785,2013-07-28 17:10:00,
2013-07-28 10:15:00,65.6,36.5,29.76,WNW,297,2.0,12.0,34,0.00,,,0.00,679,WeatherCatV1.20B785,2013-07-28 17:15:00,
2013-07-28 10:20:00,66.0,37.6,29.76,NW,310,10.0,11.0,35,0.00,,,0.00,691,WeatherCatV1.20B785,2013-07-28 17:20:00,
2013-07-28 10:25:00,66.1,39.1,29.76,WNW,293,4.0,5.0,37,0.00,,,0.00,701,WeatherCatV1.20B785,2013-07-28 17:25:00,
2013-07-28 10:30:00,66.3,38.5,29.76,WNW,299,9.0,11.0,36,0.00,,,0.00,717,WeatherCatV1.20B785,2013-07-28 17:30:00,
2013-07-28 10:35:00,66.1,37.7,29.76,WNW,293,11.0,15.0,35,0.00,,,0.00,721,WeatherCatV1.20B785,2013-07-28 17:35:00,
2013-07-28 10:40:00,66.1,37.7,29.76,West,276,13.0,15.0,35,0.00,,,0.00,735,WeatherCatV1.20B785,2013-07-28 17:40:00,
2013-07-28 10:45:00,66.3,38.5,29.76,WSW,257,4.0,14.0,36,0.00,,,0.00,744,WeatherCatV1.20B785,2013-07-28 17:45:00,
2013-07-28 10:50:00,66.6,37.3,29.76,West,276,9.0,13.0,34,0.00,,,0.00,756,WeatherCatV1.20B785,2013-07-28 17:50:00,
2013-07-28 10:55:00,66.8,37.5,29.76,West,275,2.0,14.0,34,0.00,,,0.00,766,WeatherCatV1.20B785,2013-07-28 17:55:00,
2013-07-28 11:00:00,66.9,36.8,29.76,West,271,9.0,13.0,33,0.00,,,0.00,773,WeatherCatV1.20B785,2013-07-28 18:00:00,
2013-07-28 11:05:00,67.1,37.0,29.76,WNW,301,9.0,14.0,33,0.00,,,0.00,786,WeatherCatV1.20B785,2013-07-28 18:05:00,
2013-07-28 11:10:00,66.9,37.6,29.76,WNW,288,9.0,12.0,34,0.00,,,0.00,791,WeatherCatV1.20B785,2013-07-28 18:10:00,
2013-07-28 11:15:00,67.3,38.0,29.78,NW,308,10.0,12.0,34,0.00,,,0.00,805,WeatherCatV1.20B785,2013-07-28 18:15:00,
2013-07-28 11:20:00,67.8,38.4,29.78,NW,311,9.0,10.0,34,0.00,,,0.00,816,WeatherCatV1.20B785,2013-07-28 18:20:00,
2013-07-28 11:25:00,67.9,37.0,29.78,WNW,300,13.0,14.0,32,0.00,,,0.00,819,WeatherCatV1.20B785,2013-07-28 18:25:00,
2013-07-28 11:30:00,67.9,36.1,29.76,WNW,288,5.0,11.0,31,0.00,,,0.00,833,WeatherCatV1.20B785,2013-07-28 18:30:00,
2013-07-28 11:35:00,68.1,38.7,29.76,West,273,3.0,6.0,34,0.00,,,0.00,838,WeatherCatV1.20B785,2013-07-28 18:35:00,
2013-07-28 11:40:00,68.4,36.6,29.76,WNW,298,6.0,14.0,31,0.00,,,0.00,844,WeatherCatV1.20B785,2013-07-28 18:40:00,
2013-07-28 11:45:00,68.4,36.6,29.76,WNW,283,6.0,10.0,31,0.00,,,0.00,851,WeatherCatV1.20B785,2013-07-28 18:45:00,
2013-07-28 11:50:00,68.4,34.9,29.76,WNW,300,7.0,11.0,29,0.00,,,0.00,860,WeatherCatV1.20B785,2013-07-28 18:50:00,
2013-07-28 11:55:00,68.6,35.1,29.76,WSW,251,5.0,11.0,29,0.00,,,0.00,865,WeatherCatV1.20B785,2013-07-28 18:55:00,
2013-07-28 12:00:00,68.9,35.3,29.76,WNW,288,6.0,12.0,29,0.00,,,0.00,870,WeatherCatV1.20B785,2013-07-28 19:00:00,
2013-07-28 12:05:00,69.3,34.8,29.76,WNW,301,12.0,13.0,28,0.00,,,0.00,884,WeatherCatV1.20B785,2013-07-28 19:05:00,
2013-07-28 12:10:00,69.4,34.9,29.76,West,272,6.0,15.0,28,0.00,,,0.00,888,WeatherCatV1.20B785,2013-07-28 19:10:00,
2013-07-28 12:15:00,69.3,34.8,29.75,NW,311,11.0,14.0,28,0.00,,,0.00,907,WeatherCatV1.20B785,2013-07-28 19:15:00,
2013-07-28 12:20:00,69.4,34.9,29.75,NW,314,4.0,12.0,28,0.00,,,0.00,905,WeatherCatV1.20B785,2013-07-28 19:20:00,
2013-07-28 12:25:00,69.6,36.8,29.75,West,270,8.0,11.0,30,0.00,,,0.00,921,WeatherCatV1.20B785,2013-07-28 19:25:00,
2013-07-28 12:30:00,69.8,35.2,29.74,West,262,6.0,12.0,28,0.00,,,0.00,953,WeatherCatV1.20B785,2013-07-28 19:30:00,
2013-07-28 12:35:00,70.3,34.7,29.74,North,357,4.0,18.0,27,0.00,,,0.00,960,WeatherCatV1.20B785,2013-07-28 19:35:00,
2013-07-28 12:40:00,70.3,34.7,29.74,West,262,10.0,14.0,27,0.00,,,0.00,979,WeatherCatV1.20B785,2013-07-28 19:40:00,
2013-07-28 12:45:00,70.1,33.6,29.73,West,259,4.0,12.0,26,0.00,,,0.00,962,WeatherCatV1.20B785,2013-07-28 19:45:00,
2013-07-28 12:50:00,70.1,33.6,29.73,NW,312,11.0,18.0,26,0.00,,,0.00,933,WeatherCatV1.20B785,2013-07-28 19:50:00,
2013-07-28 12:55:00,70.3,34.7,29.73,West,270,7.0,10.0,27,0.00,,,0.00,953,WeatherCatV1.20B785,2013-07-28 19:55:00,
2013-07-28 13:00:00,70.6,34.0,29.73,WSW,256,15.0,17.0,26,0.00,,,0.00,947,WeatherCatV1.20B785,2013-07-28 20:00:00,
2013-07-28 13:05:00,70.6,34.0,29.73,WNW,293,7.0,16.0,26,0.00,,,0.00,949,WeatherCatV1.20B785,2013-07-28 20:05:00,
2013-07-28 13:10:00,70.6,34.0,29.73,SSW,193,7.0,12.0,26,0.00,,,0.00,940,WeatherCatV1.20B785,2013-07-28 20:10:00,
2013-07-28 13:15:00,70.9,33.3,29.73,West,267,6.0,15.0,25,0.00,,,0.00,933,WeatherCatV1.20B785,2013-07-28 20:15:00,
2013-07-28 13:20:00,71.5,34.8,29.73,NW,317,11.0,16.0,26,0.00,,,0.00,933,WeatherCatV1.20B785,2013-07-28 20:20:00,
2013-07-28 13:27:00,71.6,34.9,29.73,WSW,249,4.0,14.0,26,0.00,,,0.00,928,WeatherCatV1.20B785,2013-07-28 20:27:00,
2013-07-28 13:32:00,71.8,35.1,29.71,WNW,300,14.0,16.0,26,0.00,,,0.00,949,WeatherCatV1.20B785,2013-07-28 20:32:00,
2013-07-28 13:37:00,72.0,36.2,29.71,West,278,4.0,15.0,27,0.00,,,0.00,954,WeatherCatV1.20B785,2013-07-28 20:37:00,
2013-07-28 13:42:00,72.5,34.7,29.71,West,270,7.0,17.0,25,0.00,,,0.00,944,WeatherCatV1.20B785,2013-07-28 20:42:00,
2013-07-28 13:47:00,72.3,34.5,29.70,WSW,247,11.0,12.0,25,0.00,,,0.00,928,WeatherCatV1.20B785,2013-07-28 20:47:00,
2013-07-28 13:52:00,72.3,35.5,29.70,WNW,288,9.0,21.0,26,0.00,,,0.00,926,WeatherCatV1.20B785,2013-07-28 20:52:00,
2013-07-28 13:57:00,72.1,35.3,29.70,NW,305,9.0,13.0,26,0.00,,,0.00,932,WeatherCatV1.20B785,2013-07-28 20:57:00,
2013-07-28 14:03:00,72.1,35.3,29.70,West,272,13.0,13.0,26,0.00,,,0.00,921,WeatherCatV1.20B785,2013-07-28 21:03:00,
2013-07-28 14:08:00,72.1,36.3,29.70,NW,324,12.0,17.0,27,0.00,,,0.00,940,WeatherCatV1.20B785,2013-07-28 21:08:00,
2013-07-28 14:13:00,72.3,36.4,29.70,WNW,283,10.0,12.0,27,0.00,,,0.00,983,WeatherCatV1.20B785,2013-07-28 21:13:00,
2013-07-28 14:18:00,72.0,36.2,29.69,West,270,6.0,19.0,27,0.00,,,0.00,954,WeatherCatV1.20B785,2013-07-28 21:18:00,
2013-07-28 14:23:00,71.3,35.6,29.69,West,273,16.0,22.0,27,0.00,,,0.00,942,WeatherCatV1.20B785,2013-07-28 21:23:00,
2013-07-28 14:28:00,70.8,36.1,29.69,WNW,299,17.0,25.0,28,0.00,,,0.00,962,WeatherCatV1.20B785,2013-07-28 21:28:00,
2013-07-28 14:33:00,70.4,36.6,29.69,WNW,293,21.0,21.0,29,0.00,,,0.00,176,WeatherCatV1.20B785,2013-07-28 21:33:00,
2013-07-28 14:39:00,70.1,35.5,29.69,WNW,283,12.0,16.0,28,0.00,,,0.00,965,WeatherCatV1.20B785,2013-07-28 21:39:00,
2013-07-28 14:44:00,70.3,35.7,29.69,WSW,258,6.0,19.0,28,0.00,,,0.00,1002,WeatherCatV1.20B785,2013-07-28 21:44:00,
2013-07-28 14:49:00,70.1,37.2,29.69,WNW,288,13.0,17.0,30,0.00,,,0.00,202,WeatherCatV1.20B785,2013-07-28 21:49:00,
2013-07-28 14:54:00,70.1,36.4,29.69,WSW,257,14.0,17.0,29,0.00,,,0.00,172,WeatherCatV1.20B785,2013-07-28 21:54:00,
2013-07-28 14:59:00,69.9,35.3,29.69,NW,317,17.0,18.0,28,0.00,,,0.00,265,WeatherCatV1.20B785,2013-07-28 21:59:00,
2013-07-28 15:04:00,69.6,36.8,29.69,West,278,10.0,18.0,30,0.00,,,0.00,336,WeatherCatV1.20B785,2013-07-28 22:04:00,
2013-07-28 15:09:00,69.4,35.8,29.69,WNW,299,18.0,23.0,29,0.00,,,0.00,243,WeatherCatV1.20B785,2013-07-28 22:09:00,
2013-07-28 15:14:00,69.4,37.4,29.70,WNW,283,9.0,16.0,31,0.00,,,0.00,854,WeatherCatV1.20B785,2013-07-28 22:14:00,
2013-07-28 15:19:00,69.9,37.0,29.70,WNW,283,14.0,19.0,30,0.00,,,0.00,169,WeatherCatV1.20B785,2013-07-28 22:19:00,
2013-07-28 15:24:00,69.8,37.8,29.70,West,269,11.0,14.0,31,0.00,,,0.00,188,WeatherCatV1.20B785,2013-07-28 22:24:00,
2013-07-28 15:29:00,69.9,37.0,29.70,West,278,9.0,16.0,30,0.00,,,0.00,819,WeatherCatV1.20B785,2013-07-28 22:29:00,
2013-07-28 15:34:00,70.3,35.7,29.70,NW,320,16.0,21.0,28,0.00,,,0.00,800,WeatherCatV1.20B785,2013-07-28 22:34:00,
2013-07-28 15:40:00,70.3,36.5,29.70,WNW,283,14.0,19.0,29,0.00,,,0.00,805,WeatherCatV1.20B785,2013-07-28 22:40:00,
2013-07-28 15:45:00,69.9,35.3,29.70,SW,233,10.0,13.0,28,0.00,,,0.00,109,WeatherCatV1.20B785,2013-07-28 22:45:00,
2013-07-28 15:50:00,69.4,35.8,29.70,NW,314,18.0,22.0,29,0.00,,,0.00,107,WeatherCatV1.20B785,2013-07-28 22:50:00,
2013-07-28 15:55:00,69.4,36.6,29.70,WNW,283,11.0,20.0,30,0.00,,,0.00,816,WeatherCatV1.20B785,2013-07-28 22:55:00,
2013-07-28 16:00:00,69.6,36.8,29.70,WNW,297,18.0,22.0,30,0.00,,,0.00,88,WeatherCatV1.20B785,2013-07-28 23:00:00,
2013-07-28 16:05:00,69.3,37.4,29.70,WNW,299,17.0,21.0,31,0.00,,,0.00,91,WeatherCatV1.20B785,2013-07-28 23:05:00,
2013-07-28 16:10:00,69.3,36.5,29.70,NW,320,16.0,24.0,30,0.00,,,0.00,763,WeatherCatV1.20B785,2013-07-28 23:10:00,
2013-07-28 16:15:00,69.9,37.0,29.69,WNW,288,17.0,19.0,30,0.00,,,0.00,737,WeatherCatV1.20B785,2013-07-28 23:15:00,
2013-07-28 16:20:00,70.6,38.5,29.69,NW,310,24.0,24.0,31,0.00,,,0.00,710,WeatherCatV1.20B785,2013-07-28 23:20:00,
2013-07-28 16:25:00,70.4,35.7,29.69,WNW,301,13.0,23.0,28,0.00,,,0.00,77,WeatherCatV1.20B785,2013-07-28 23:25:00,
2013-07-28 16:30:00,69.9,37.0,29.69,NW,322,20.0,24.0,30,0.00,,,0.00,118,WeatherCatV1.20B785,2013-07-28 23:30:00,
2013-07-28 16:35:00,69.8,37.0,29.69,WNW,283,10.0,24.0,30,0.00,,,0.00,659,WeatherCatV1.20B785,2013-07-28 23:35:00,
2013-07-28 16:40:00,69.9,38.7,29.69,WNW,293,15.0,21.0,32,0.00,,,0.00,640,WeatherCatV1.20B785,2013-07-28 23:40:00,
2013-07-28 16:45:00,70.4,38.3,29.68,NW,324,13.0,24.0,31,0.00,,,0.00,677,WeatherCatV1.20B785,2013-07-28 23:45:00,
2013-07-28 16:50:00,70.8,37.8,29.68,WNW,301,13.0,19.0,30,0.00,,,0.00,636,WeatherCatV1.20B785,2013-07-28 23:50:00,
2013-07-28 16:55:00,70.6,37.7,29.68,West,276,15.0,20.0,30,0.00,,,0.00,592,WeatherCatV1.20B785,2013-07-28 23:55:00,
2013-07-28 17:00:00,70.6,36.8,29.68,WNW,293,14.0,22.0,29,0.00,,,0.00,582,WeatherCatV1.20B785,2013-07-29 00:00:00,
2013-07-28 17:05:00,70.4,38.3,29.68,WNW,283,12.0,20.0,31,0.00,,,0.00,559,WeatherCatV1.20B785,2013-07-29 00:05:00,
2013-07-28 17:10:00,70.6,37.7,29.68,NW,312,16.0,23.0,30,0.00,,,0.00,561,WeatherCatV1.20B785,2013-07-29 00:10:00,
2013-07-28 17:15:00,70.3,37.4,29.68,NW,307,18.0,27.0,30,0.00,,,0.00,529,WeatherCatV1.20B785,2013-07-29 00:15:00,
2013-07-28 17:20:00,69.9,37.9,29.68,NW,311,16.0,22.0,31,0.00,,,0.00,519,WeatherCatV1.20B785,2013-07-29 00:20:00,
2013-07-28 17:25:00,69.8,37.8,29.68,WNW,293,16.0,21.0,31,0.00,,,0.00,515,WeatherCatV1.20B785,2013-07-29 00:25:00,
2013-07-28 17:30:00,69.9,37.9,29.69,WSW,255,16.0,22.0,31,0.00,,,0.00,496,WeatherCatV1.20B785,2013-07-29 00:30:00,
2013-07-28 17:35:00,69.8,37.8,29.69,NW,309,14.0,20.0,31,0.00,,,0.00,487,WeatherCatV1.20B785,2013-07-29 00:35:00,
2013-07-28 17:40:00,69.8,37.8,29.69,WNW,303,19.0,21.0,31,0.00,,,0.00,462,WeatherCatV1.20B785,2013-07-29 00:40:00,
2013-07-28 17:45:00,69.6,37.6,29.69,WNW,293,18.0,23.0,31,0.00,,,0.00,438,WeatherCatV1.20B785,2013-07-29 00:45:00,
2013-07-28 17:50:00,69.8,37.8,29.69,WNW,303,20.0,21.0,31,0.00,,,0.00,420,WeatherCatV1.20B785,2013-07-29 00:50:00,
2013-07-28 17:55:00,69.8,38.6,29.69,NW,316,11.0,19.0,32,0.00,,,0.00,403,WeatherCatV1.20B785,2013-07-29 00:55:00,
2013-07-28 18:00:00,69.9,37.9,29.70,WNW,283,9.0,14.0,31,0.00,,,0.00,392,WeatherCatV1.20B785,2013-07-29 01:00:00,
2013-07-28 18:05:00,69.9,37.0,29.70,WNW,293,14.0,20.0,30,0.00,,,0.00,374,WeatherCatV1.20B785,2013-07-29 01:05:00,
2013-07-28 18:10:00,69.8,37.0,29.70,NW,304,13.0,18.0,30,0.00,,,0.00,353,WeatherCatV1.20B785,2013-07-29 01:10:00,
2013-07-28 18:15:00,69.6,37.6,29.69,WNW,293,14.0,22.0,31,0.00,,,0.00,339,WeatherCatV1.20B785,2013-07-29 01:15:00,
2013-07-28 18:20:00,69.6,37.6,29.69,WNW,295,13.0,17.0,31,0.00,,,0.00,336,WeatherCatV1.20B785,2013-07-29 01:20:00,
2013-07-28 18:25:00,58.3,37.6,29.75,NW,315,1.0,2.0,46,0.00,,,0.00,0,WeatherCatV1.20B785,2013-07-29 01:25:00,
2013-07-28 18:30:00,58.3,37.6,29.75,NW,315,1.0,2.0,46,0.00,,,0.00,0,WeatherCatV1.20B785,2013-07-29 01:30:00,
2013-07-28 18:35:00,58.3,37.6,29.75,NW,315,1.0,2.0,46,0.00,,,0.00,0,WeatherCatV1.20B785,2013-07-29 01:35:00,
2013-07-28 18:40:00,58.3,37.6,29.75,NW,315,1.0,2.0,46,0.00,,,0.00,0,WeatherCatV1.20B785,2013-07-29 01:40:00,
2013-07-28 18:45:00,58.3,37.6,29.75,NW,315,1.0,2.0,46,0.00,,,0.00,0,WeatherCatV1.20B785,2013-07-29 01:45:00,
2013-07-28 18:50:00,58.3,37.6,29.75,NW,315,1.0,2.0,46,0.00,,,0.00,0,WeatherCatV1.20B785,2013-07-29 01:50:00,
2013-07-28 18:55:00,58.3,37.6,29.75,NW,315,1.0,2.0,46,0.00,,,0.00,0,WeatherCatV1.20B785,2013-07-29 01:55:00,
2013-07-28 19:00:00,58.3,37.6,29.75,NW,315,1.0,2.0,46,0.00,,,0.00,0,WeatherCatV1.20B785,2013-07-29 02:00:00,
2013-07-28 19:05:00,58.3,37.6,29.75,NW,315,1.0,2.0,46,0.00,,,0.00,0,WeatherCatV1.20B785,2013-07-29 02:05:00,
2013-07-28 19:10:00,58.3,37.6,29.75,NW,315,1.0,2.0,46,0.00,,,0.00,0,WeatherCatV1.20B785,2013-07-29 02:10:00,
2013-07-28 19:15:00,58.3,37.6,29.75,NW,315,1.0,2.0,46,0.00,,,0.00,0,WeatherCatV1.20B785,2013-07-29 02:15:00,
2013-07-28 19:20:00,58.3,37.6,29.75,NW,315,1.0,2.0,46,0.00,,,0.00,0,WeatherCatV1.20B785,2013-07-29 02:20:00,
2013-07-28 19:25:00,58.3,37.6,29.75,NW,315,1.0,2.0,46,0.00,,,0.00,0,WeatherCatV1.20B785,2013-07-29 02:25:00,
2013-07-28 19:30:00,58.3,37.6,29.75,NW,315,1.0,2.0,46,0.00,,,0.00,0,WeatherCatV1.20B785,2013-07-29 02:30:00,
2013-07-28 19:35:00,58.3,37.6,29.75,NW,315,1.0,2.0,46,0.00,,,0.00,0,WeatherCatV1.20B785,2013-07-29 02:35:00,
2013-07-28 19:40:00,58.3,37.6,29.75,NW,315,1.0,2.0,46,0.00,,,0.00,0,WeatherCatV1.20B785,2013-07-29 02:40:00,
2013-07-28 19:45:00,58.3,37.6,29.75,NW,315,1.0,2.0,46,0.00,,,0.00,0,WeatherCatV1.20B785,2013-07-29 02:45:00,
2013-07-28 19:50:00,58.3,37.6,29.75,NW,315,1.0,2.0,46,0.00,,,0.00,0,WeatherCatV1.20B785,2013-07-29 02:50:00,
2013-07-28 19:55:00,58.3,37.6,29.75,NW,315,1.0,2.0,46,0.00,,,0.00,0,WeatherCatV1.20B785,2013-07-29 02:55:00,
2013-07-28 20:00:00,58.3,37.6,29.75,NW,315,1.0,2.0,46,0.00,,,0.00,0,WeatherCatV1.20B785,2013-07-29 03:00:00,
2013-07-28 20:05:00,58.3,37.6,29.75,NW,315,1.0,2.0,46,0.00,,,0.00,0,WeatherCatV1.20B785,2013-07-29 03:05:00,
2013-07-28 20:10:00,58.3,37.6,29.75,NW,315,1.0,2.0,46,0.00,,,0.00,0,WeatherCatV1.20B785,2013-07-29 03:10:00,
2013-07-28 20:15:00,58.3,37.6,29.75,NW,315,1.0,2.0,46,0.00,,,0.00,0,WeatherCatV1.20B785,2013-07-29 03:15:00,
2013-07-28 20:20:00,58.3,37.6,29.75,NW,315,1.0,2.0,46,0.00,,,0.00,0,WeatherCatV1.20B785,2013-07-29 03:20:00,
2013-07-28 20:25:00,58.3,37.6,29.75,NW,315,1.0,2.0,46,0.00,,,0.00,0,WeatherCatV1.20B785,2013-07-29 03:25:00,
2013-07-28 20:30:00,58.3,37.6,29.75,NW,315,1.0,2.0,46,0.00,,,0.00,0,WeatherCatV1.20B785,2013-07-29 03:30:00,
2013-07-28 20:35:00,58.3,37.6,29.75,NW,315,1.0,2.0,46,0.00,,,0.00,0,WeatherCatV1.20B785,2013-07-29 03:35:00,
2013-07-28 20:40:00,58.3,37.6,29.75,NW,315,1.0,2.0,46,0.00,,,0.00,0,WeatherCatV1.20B785,2013-07-29 03:40:00,
2013-07-28 20:45:00,58.3,37.6,29.75,NW,315,1.0,2.0,46,0.00,,,0.00,0,WeatherCatV1.20B785,2013-07-29 03:45:00,
2013-07-28 20:50:00,58.3,37.6,29.75,NW,315,1.0,2.0,46,0.00,,,0.00,0,WeatherCatV1.20B785,2013-07-29 03:50:00,
2013-07-28 20:55:00,58.3,37.6,29.75,NW,315,1.0,2.0,46,0.00,,,0.00,0,WeatherCatV1.20B785,2013-07-29 03:55:00,
2013-07-28 21:00:00,58.3,37.6,29.75,NW,315,1.0,2.0,46,0.00,,,0.00,0,WeatherCatV1.20B785,2013-07-29 04:00:00,
2013-07-28 21:05:00,58.3,37.6,29.75,NW,315,1.0,2.0,46,0.00,,,0.00,0,WeatherCatV1.20B785,2013-07-29 04:05:00,
2013-07-28 21:10:00,58.3,37.6,29.75,NW,315,1.0,2.0,46,0.00,,,0.00,0,WeatherCatV1.20B785,2013-07-29 04:10:00,
2013-07-28 21:15:00,58.3,37.6,29.75,NW,315,1.0,2.0,46,0.00,,,0.00,0,WeatherCatV1.20B785,2013-07-29 04:15:00,
2013-07-28 21:20:00,58.3,37.6,29.75,NW,315,1.0,2.0,46,0.00,,,0.00,0,WeatherCatV1.20B785,2013-07-29 04:20:00,
2013-07-28 21:25:00,58.3,37.6,29.75,NW,315,1.0,2.0,46,0.00,,,0.00,0,WeatherCatV1.20B785,2013-07-29 04:25:00,
2013-07-28 21:30:00,58.3,37.6,29.75,NW,315,1.0,2.0,46,0.00,,,0.00,0,WeatherCatV1.20B785,2013-07-29 04:30:00,
2013-07-28 21:35:00,58.3,37.6,29.75,NW,315,1.0,2.0,46,0.00,,,0.00,0,WeatherCatV1.20B785,2013-07-29 04:35:00,
2013-07-28 21:40:00,58.3,37.6,29.75,NW,315,1.0,2.0,46,0.00,,,0.00,0,WeatherCatV1.20B785,2013-07-29 04:40:00,
2013-07-28 21:45:00,58.3,37.6,29.75,NW,315,1.0,2.0,46,0.00,,,0.00,0,WeatherCatV1.20B785,2013-07-29 04:45:00,
2013-07-28 21:50:00,58.3,37.6,29.75,NW,315,1.0,2.0,46,0.00,,,0.00,0,WeatherCatV1.20B785,2013-07-29 04:50:00,
2013-07-28 21:55:00,58.3,37.6,29.75,NW,315,1.0,2.0,46,0.00,,,0.00,0,WeatherCatV1.20B785,2013-07-29 04:55:00,
2013-07-28 22:00:00,58.3,37.6,29.75,NW,315,1.0,2.0,46,0.00,,,0.00,0,WeatherCatV1.20B785,2013-07-29 05:00:00,
2013-07-28 22:05:00,58.3,37.6,29.75,NW,315,1.0,2.0,46,0.00,,,0.00,0,WeatherCatV1.20B785,2013-07-29 05:05:00,
2013-07-28 22:10:00,58.3,37.6,29.75,NW,315,1.0,2.0,46,0.00,,,0.00,0,WeatherCatV1.20B785,2013-07-29 05:10:00,
2013-07-28 22:15:00,58.3,37.6,29.75,NW,315,1.0,2.0,46,0.00,,,0.00,0,WeatherCatV1.20B785,2013-07-29 05:15:00,
2013-07-28 22:20:00,58.3,37.6,29.75,NW,315,1.0,2.0,46,0.00,,,0.00,0,WeatherCatV1.20B785,2013-07-29 05:20:00,
2013-07-28 22:25:00,58.3,37.6,29.75,NW,315,1.0,2.0,46,0.00,,,0.00,0,WeatherCatV1.20B785,2013-07-29 05:25:00,
2013-07-28 22:30:00,58.3,37.6,29.75,NW,315,1.0,2.0,46,0.00,,,0.00,0,WeatherCatV1.20B785,2013-07-29 05:30:00,
2013-07-28 22:35:00,58.3,37.6,29.75,NW,315,1.0,2.0,46,0.00,,,0.00,0,WeatherCatV1.20B785,2013-07-29 05:35:00,
2013-07-28 22:40:00,58.3,37.6,29.75,NW,315,1.0,2.0,46,0.00,,,0.00,0,WeatherCatV1.20B785,2013-07-29 05:40:00,
2013-07-28 22:45:00,58.3,37.6,29.75,NW,315,1.0,2.0,46,0.00,,,0.00,0,WeatherCatV1.20B785,2013-07-29 05:45:00,
2013-07-28 22:50:00,58.3,37.6,29.75,NW,315,1.0,2.0,46,0.00,,,0.00,0,WeatherCatV1.20B785,2013-07-29 05:50:00,
2013-07-28 22:55:00,58.3,37.6,29.75,NW,315,1.0,2.0,46,0.00,,,0.00,0,WeatherCatV1.20B785,2013-07-29 05:55:00,
2013-07-28 23:00:00,58.3,37.6,29.75,NW,315,1.0,2.0,46,0.00,,,0.00,0,WeatherCatV1.20B785,2013-07-29 06:00:00,
2013-07-28 23:05:00,58.3,37.6,29.75,NW,315,1.0,2.0,46,0.00,,,0.00,0,WeatherCatV1.20B785,2013-07-29 06:05:00,
2013-07-28 23:10:00,58.3,37.6,29.75,NW,315,1.0,2.0,46,0.00,,,0.00,0,WeatherCatV1.20B785,2013-07-29 06:10:00,
2013-07-28 23:15:00,58.3,37.6,29.75,NW,315,1.0,2.0,46,0.00,,,0.00,0,WeatherCatV1.20B785,2013-07-29 06:15:00,
2013-07-28 23:20:00,58.3,37.6,29.75,NW,315,1.0,2.0,46,0.00,,,0.00,0,WeatherCatV1.20B785,2013-07-29 06:20:00,
2013-07-28 23:25:00,58.3,37.6,29.75,NW,315,1.0,2.0,46,0.00,,,0.00,0,WeatherCatV1.20B785,2013-07-29 06:25:00,
2013-07-28 23:30:00,58.3,37.6,29.75,NW,315,1.0,2.0,46,0.00,,,0.00,0,WeatherCatV1.20B785,2013-07-29 06:30:00,
2013-07-28 23:35:00,58.3,37.6,29.75,NW,315,1.0,2.0,46,0.00,,,0.00,0,WeatherCatV1.20B785,2013-07-29 06:35:00,
2013-07-28 23:40:00,58.3,37.6,29.75,NW,315,1.0,2.0,46,0.00,,,0.00,0,WeatherCatV1.20B785,2013-07-29 06:40:00,
2013-07-28 23:45:00,58.3,37.6,29.75,NW,315,1.0,2.0,46,0.00,,,0.00,0,WeatherCatV1.20B785,2013-07-29 06:45:00,
2013-07-28 23:50:00,58.3,37.6,29.75,NW,315,1.0,2.0,46,0.00,,,0.00,0,WeatherCatV1.20B785,2013-07-29 06:50:00,
2013-07-28 23:55:00,58.3,37.6,29.75,NW,315,1.0,2.0,46,0.00,,,0.00,0,WeatherCatV1.20B785,2013-07-29 06:55:00,